P/2005 GF8 (LONEOS)

Epoch 2005 Aug. 18.0 TT = JDT 2453600.5  

T 2005 Aug. 17.55824 TT                                 Nakano

q   2.8295354            (2000.0)            P               Q

n   0.06954143     Peri.  285.34159     -0.49212411     +0.87040204

a   5.8565293      Node   315.16848     -0.79051775     -0.45387094

e   0.5168580      Incl.    1.18934     -0.36454842     -0.19079165

P  14.17 (+/- 0.05 day)

From 213 observations 2005 Apr. 2-Sept. 15, mean residual 0".60.

Residuals in seconds of arc 

2005/                     050415 850  1.0-  0.0     050506 A61  0.5+  0.8-  

050402 699  0.3+  0.7+    050415 246  0.9+  0.2+    050506 232  0.0   0.5+  

050402 699  0.2+  0.9+    050415 246  0.6+  0.1+    050506 232  0.1+  0.2+  

050402 699  1.2-  0.9+    050415 246  0.0   0.1-    050506 A61  0.8-  1.5-  

050402 699  0.2-  0.0     050415 246  0.4+  0.2-    050507 213  0.4-  0.4-  

050403 E12  0.1+  0.4+    050415 246  0.5+  0.0     050507 213  0.5-  0.2-  

050403 E12  0.3-  0.2+    050415 246  0.6+  0.2+    050507 213  0.1-  0.2-  

050403 E12  0.0   0.4+    050416 213  0.0   0.1-    050508 A02  0.2-  0.2-  

050403 E12  0.3+  0.6+    050416 213  0.1-  0.0     050508 A02  0.3+  0.9-  

050407 704  1.1+  0.5+    050416 213  0.6+  0.2-    050508 A02 (2.0+  0.8-) 

050407 704  1.3+  0.8-    050416 213  0.1+  0.3-    050509 704  0.7+  0.1+  

050407 704  1.1+  0.4+    050416 213  0.4-  0.9-    050509 704  0.5+  0.8+  

050411 691  0.3-  0.5+    050418 850 (2.1-  0.6+)   050509 704  0.8+  0.9-  

050411 691  0.1-  0.3+    050418 850  1.0-  0.6-    050509 704 (0.2-  2.2-) 

050411 691  0.0   0.2+    050418 703  1.8-  0.0     050509 415  0.1-  0.3-  

050411 J95  0.7-  0.8-    050418 850  1.6-  0.1+    050509 415  0.3-  0.4-  

050412 I77  0.1-  0.4-    050418 703  1.7-  0.0     050509 415  0.4-  0.3-  

050412 J95  0.3-  0.5-    050418 703 (3.1-  1.4+)   050511 561  0.3-  0.4+  

050412 I77  0.3-  0.3-    050418 703  1.8-  0.9+    050511 561  0.1+  0.1+  

050412 I77  0.3-  0.2-    050418 850  1.5-  0.1+    050511 561  0.2-  0.2+  

050412 673  0.9+  0.5-    050418 704  0.2-  0.1-    050511 A32  0.2+  0.6-  

050412 691  0.3+  0.4-    050418 704  0.2-  0.8+    050511 A32  1.1+  0.6+  

050412 673  0.4+  0.5-    050418 704  0.3+  0.3+    050512 699  0.2+  0.4+  

050412 704  1.7+  0.7-    050418 704  0.5-  0.1-    050512 699  0.7+  1.0+  

050412 673  0.9+  0.3-    050418 704  0.3-  0.2+    050512 699  0.6+  0.9+  

050412 673  0.4+  0.3-    050418 608  0.7+  1.0+    050512 699  0.8+  0.3+  

050412 691  0.0   0.1-    050418 608  1.0+  0.7+    050514 415  0.5-  0.4-  

050412 704  0.7+  0.3+    050418 608  0.6+  1.0+    050514 415  0.5-  0.1-  

050412 673  0.5+  0.5-    050420 I77  0.4-  0.0     050528 844  1.7+  0.7-  

050412 673  0.5+  0.3-    050420 I77  0.4-  0.4+    050528 844 (2.3+  1.0-) 

050412 704  0.8+  0.2+    050420 I77  1.9-  0.3+    050528 844  1.7+  0.4-  

050412 691  0.3+  0.2-    050420 699  0.2+  0.5-    050528 844  0.0   0.7+  

050412 704  0.5+  0.1-    050420 699  0.9-  1.2+    050528 844  0.1+  0.7+  

050412 704  0.5+  0.5+    050420 699 (0.1-  2.4+)   050602 J76  0.5+  0.2-  

050413 I77  0.0   0.1+    050420 699  0.5+  0.5-    050602 J76  0.2+  0.1-  

050413 I77  0.0   0.3+    050429 360  0.1+  0.7-    050602 J76  0.2-  0.6-  

050413 I77  0.0   0.1+    050429 360  0.1-  0.4-    050609 372  0.1-  0.1+  

050413 G90  0.4+  0.2+    050429 360  0.0   0.5-    050611 130  0.6+  0.5-  

050413 G90  0.4+  0.2+    050429 A61 (0.0   3.9+)   050616 673  0.5-  0.3+  

050413 G90  0.2+  0.2+    050429 213  0.2-  0.0     050616 673  0.5-  0.4+  

050413 854  0.4+  0.8+    050429 213  0.3-  0.1-    050616 673  0.4-  0.4+  

050413 854  0.5-  0.1-    050429 213  0.8-  0.8+    050616 673  0.2-  0.3+  

050413 854  0.5+  0.2+    050429 232  1.3+  0.8-    050626 E12 (2.9+  0.2-) 

050413 I10  0.5-  0.3-    050430 232  1.6+  0.7-    050626 E12  1.2+  0.2-  

050413 699  0.2-  1.0+    050430 232  1.9+  0.8-    050626 E12  1.0+  0.2-  

050413 I10  0.9-  0.2+    050430 A61 (2.9+  0.4+)   050626 E12  0.2-  0.6+  

050413 699  0.4-  0.5+    050430 J87  0.1-  0.4-    050627 415  1.0-  0.4+  

050413 I10  0.3-  0.3-    050430 J87  0.2-  0.6-    050627 415  0.2-  0.2+  

050413 699  0.2-  0.3-    050430 J87  0.3-  0.5-    050702 415  0.5-  0.0   

050413 673  0.3+  0.2-    050501 644  0.1-  0.1-    050702 415  1.1-  0.6+  

050413 673  0.3+  0.4-    050501 644  0.1-  0.0     050702 J76  0.2-  0.3+  

050413 673  0.3+  0.0     050501 644  0.1-  0.1+    050702 J76  0.1+  1.1+  

050413 673  0.2+  0.1-    050501 415  0.6-  0.5-    050702 J76  0.6+  0.7+  

050413 673  0.2+  0.1-    050501 415  0.5-  0.2-    050711 415  0.6-  0.2+  

050413 673  0.0   0.4-    050501 415  0.6-  0.3-    050711 415  0.1-  0.7+  

050413 428  0.2-  0.1-    050501 215  0.4-  0.7-    050711 415  0.1+  0.1-  

050413 428  0.6-  0.0     050501 215  0.4-  0.5-    050728 E12  0.1-  0.1+  

050413 428  0.8-  0.3-    050502 415  0.3-  0.5-    050728 E12 (2.4+  1.1-) 

050413 428  0.2-  0.0     050502 415  0.2-  0.3-    050728 E12  0.7+  0.7-  

050414 I10  0.2+  0.7+    050502 415  0.1-  0.1+    050728 E12  0.4+  0.1+  

050414 I10  1.4-  1.1+    050502 372  1.0-  0.8+    050730 415  0.0   0.3-  

050414 I10  0.7-  1.3+    050503 372  0.2-  0.3+    050730 415  0.7+  0.0   

050414 372  0.1-  0.1-    050504 360  0.1-  0.4-    050731 415  0.1+  0.3-  

050414 360  0.1-  0.4-    050504 349  0.8-  0.2-    050731 415  0.3-  0.0   

050414 360  0.3+  0.5-    050504 360  0.2-  0.3-    050827 415  0.4+  0.0   

050414 372  1.1+  0.2-    050504 349  0.9-  0.2-    050827 415  1.3+  0.5-  

050414 360  0.3+  0.4-    050505 704  1.4+  0.1+    050827 E12  0.1-  0.3+  

050414 D74  0.7+  0.4-    050505 704  0.7+  0.1-    050827 E12  1.4-  0.5+  

050414 D74  0.6+  0.5-    050505 704  1.6+  0.6+    050827 E12  0.0   0.6-  

050414 D74  0.6+  0.6-    050505 704  0.4+  0.3+    050827 E12  0.3-  0.6+  

050414 349  0.2-  0.7-    050506 703  1.3-  0.1+    050915 E12  0.3-  0.4-  

050414 349  0.2+  0.8-    050506 703  1.0-  0.1+    050915 E12  0.2-  0.2+  

050414 349  0.2+  0.6-    050506 703  0.3-  0.7+    050915 E12  0.8+  1.1-  

050415 850  0.2-  0.2+    050506 703  1.1-  0.5+    050915 E12  0.7-  0.2-  

050415 850  1.8-  1.4+    050506 232  0.3-  0.4+                            



NAKANO

         **** Don't distribute anyone except personal use only ****

                (C) Copyright 2005 OAA/ComputingSection

write mail from CFAD0::NAKANO on 2005-11-03 23:39:18(JST).

 



    P/2005 GF8 (LONEOS)                                                   

Epoch 2005 Aug. 18.0 TT = JDT 2453600.5  

T 2005 Aug. 17.49701 TT                                 Nakano

q   2.8297720            (2000.0)            P               Q

n   0.06955575     Peri.  285.32019     -0.49240681     +0.87024215

a   5.8557254      Node   315.17127     -0.79036997     -0.45412736

e   0.5167513      Incl.    1.18937     -0.36448710     -0.19091083

P  14.17 (+/- 0.22 day)

From 189 observations 2005 Apr. 2-June 27, mean residual 0".62.



NAKANO

         **** Don't distribute anyone except personal use only ****

                (C) Copyright 2005 OAA/ComputingSection

write mail from CFAD0::NAKANO on 2005-07-03 02:21:28(JST).



    P/2005 GF8 (LONEOS)                                                   

T 2005 Aug. 17.45606 TT                                 Nakano

q   2.8283078            (2000.0)            P               Q

n   0.06945433     Peri.  285.29893     -0.49216689     +0.87037807

a   5.8614246      Node   315.20833     -0.79049554     -0.45390361

e   0.5174709      Incl.    1.18910     -0.36453883     -0.19082326

P  14.19 (+/- 0.40 day)

From 169 observations 2005 Apr. 2-May 14.



NAKANO

         **** Don't distribute anyone except personal use only ****

                (C) Copyright 2005 OAA/ComputingSection

write mail from CFAD0::NAKANO on 2005-06-05 05:59:11(JST).

 



◎P/2005 GF8の軌道と予報位置です



  久万の中村彰正氏によると,彗星のCCD全光度は,4月29日に17.5等,

5月4日に17.4等でした.



    C/2005 GF8 (LONEOS)                                                   

T 2005 Aug. 15.93850 TT                                 Nakano

q   2.8261110            (2000.0)            P               Q

n   0.06973688     Peri.  284.95158     -0.49717850     +0.86752537

a   5.8455812      Node   315.22525     -0.78787093     -0.45845067

e   0.5165389      Incl.    1.18810     -0.36341841     -0.19293191

P  14.13 (+/- 0.80 day)

From 127 observations 2005 Apr. 2-May 4.

 

Date/        TT  R.A.(2000) Decl.     Delta   r     Daily motion  Mag.  Moon Age

              h    h  m       。  ,                      ,  / PA 。  m1      。

2005 May   5 12  13 46.01  -12 49.9   1.941  2.924     7.9 / 291  17.6  160  .09

           6 12  13 45.50  -12 47.0   1.942  2.922     7.8 / 292  17.6  174  .04

           7 12  13 45.00  -12 44.2   1.944  2.920     7.6 / 292  17.6  172  .01

           8 12  13 44.52  -12 41.4   1.946  2.918     7.4 / 292  17.6  159  .00

           9 12  13 44.05  -12 38.6   1.948  2.916     7.3 / 292  17.6  146  .01

          10 12  13 43.59  -12 35.9   1.951  2.915     7.1 / 292  17.6  134  .05

          11 12  13 43.14  -12 33.2   1.954  2.913     6.8 / 292  17.6  121  .10

          12 12  13 42.71  -12 30.6   1.957  2.911     6.6 / 292  17.6  109  .16

          13 12  13 42.29  -12 28.1   1.960  2.909     6.4 / 293  17.6   97  .24

          14 12  13 41.89  -12 25.6   1.964  2.908     6.2 / 293  17.6   85  .33

          15 12  13 41.50  -12 23.2   1.967  2.906     5.9 / 293  17.6   73  .42

          16 12  13 41.13  -12 20.9   1.971  2.904     5.7 / 293  17.6   61  .51

          17 12  13 40.77  -12 18.7   1.975  2.903     5.4 / 294  17.6   49  .61

          18 12  13 40.44  -12 16.5   1.980  2.901     5.1 / 294  17.6   37  .70

          19 12  13 40.12  -12 14.4   1.985  2.899     4.9 / 294  17.6   24  .79

